PHBHV EHAM-EHAM

Flight info

Callsign PHBHV
Flight time 0h 13m
Altitude 1500
Route EHAM
Aircraft C172/L-SFG/C

Departure

Time 2026-04-29 08:04
Airport Amsterdam Airport Schiphol (EHAM)

Arrival

Time 2026-04-29 08:17
Airport Amsterdam Airport Schiphol (EHAM)
Time Latitude Longitude Altitude Speed Heading
2026-04-29 08:01 52.31165 4.80552 -9 ft 0 kts 131°
2026-04-29 08:02 52.31177 4.80544 -9 ft 8 kts 289°
2026-04-29 08:03 52.31222 4.80557 -10 ft 11 kts 17°
2026-04-29 08:03 52.31267 4.80457 -9 ft 10 kts 357°
2026-04-29 08:03 52.31299 4.80448 -11 ft 9 kts 322°
2026-04-29 08:03 52.31368 4.80324 -10 ft 20 kts 317°
2026-04-29 08:04 52.31352 4.80219 -6 ft 0 kts 83°
2026-04-29 08:04 52.31403 4.81079 439 ft 70 kts 81°
2026-04-29 08:04 52.31454 4.81846 545 ft 72 kts 79°
2026-04-29 08:04 52.31536 4.82664 782 ft 71 kts 81°
2026-04-29 08:05 52.31693 4.83281 1162 ft 60 kts 43°
2026-04-29 08:05 52.32163 4.83388 1398 ft 73 kts 19°
2026-04-29 08:05 52.32678 4.83433 1636 ft 75 kts 18°
2026-04-29 08:05 52.33214 4.83403 1887 ft 80 kts 15°
2026-04-29 08:06 52.33854 4.83291 1915 ft 104 kts 16°
2026-04-29 08:06 52.34625 4.83338 1901 ft 116 kts 17°
2026-04-29 08:06 52.35441 4.83394 1896 ft 120 kts 16°
2026-04-29 08:06 52.36281 4.83461 1898 ft 120 kts 21°
2026-04-29 08:07 52.36814 4.84213 1903 ft 102 kts 81°
2026-04-29 08:07 52.36690 4.85352 1905 ft 104 kts 107°
2026-04-29 08:07 52.36295 4.86350 1901 ft 108 kts 123°
2026-04-29 08:07 52.35746 4.87211 1903 ft 110 kts 129°
2026-04-29 08:08 52.35179 4.88050 1902 ft 110 kts 129°
2026-04-29 08:08 52.34761 4.89017 1885 ft 102 kts 94°
2026-04-29 08:08 52.35123 4.89963 1886 ft 111 kts 40°
2026-04-29 08:08 52.35834 4.90490 1894 ft 113 kts 36°
2026-04-29 08:09 52.36608 4.90850 1879 ft 129 kts
2026-04-29 08:09 52.37395 4.89991 1886 ft 149 kts 314°
2026-04-29 08:09 52.37964 4.88561 1886 ft 151 kts 305°
2026-04-29 08:09 52.38067 4.86854 1882 ft 156 kts 250°
2026-04-29 08:10 52.37461 4.85457 1889 ft 149 kts 220°
2026-04-29 08:10 52.36770 4.84195 1892 ft 149 kts 221°
2026-04-29 08:10 52.35970 4.83268 1881 ft 134 kts 180°
2026-04-29 08:10 52.35119 4.83369 1889 ft 116 kts 147°
2026-04-29 08:11 52.34473 4.84039 1886 ft 106 kts 126°
2026-04-29 08:11 52.34001 4.84945 1887 ft 104 kts 121°
2026-04-29 08:11 52.33537 4.85858 1888 ft 105 kts 122°
2026-04-29 08:11 52.33069 4.86773 1888 ft 105 kts 121°
2026-04-29 08:12 52.32598 4.87688 1888 ft 106 kts 122°
2026-04-29 08:12 52.32123 4.88606 1887 ft 106 kts 121°
2026-04-29 08:12 52.31647 4.89527 1887 ft 106 kts 122°
2026-04-29 08:12 52.31169 4.90453 1886 ft 107 kts 122°
2026-04-29 08:13 52.30691 4.91381 1883 ft 107 kts 122°
2026-04-29 08:13 52.30212 4.92316 1884 ft 107 kts 121°
2026-04-29 08:13 52.30109 4.93393 1883 ft 103 kts 66°
2026-04-29 08:13 52.30757 4.94017 1889 ft 116 kts 28°
2026-04-29 08:14 52.31598 4.93876 1883 ft 139 kts 340°
2026-04-29 08:14 52.32300 4.92712 1889 ft 146 kts 319°
2026-04-29 08:14 52.32946 4.91424 1891 ft 146 kts 319°
2026-04-29 08:14 52.33590 4.90147 1890 ft 145 kts 319°
2026-04-29 08:15 52.34234 4.88875 1889 ft 146 kts 319°
2026-04-29 08:15 52.34879 4.87599 1889 ft 145 kts 319°
2026-04-29 08:15 52.35525 4.86318 1868 ft 147 kts 316°
2026-04-29 08:15 52.35044 4.85079 1408 ft 155 kts 197°
2026-04-29 08:16 52.34068 4.84183 820 ft 163 kts 218°
2026-04-29 08:16 52.33349 4.83070 802 ft 106 kts 214°
2026-04-29 08:16 52.32838 4.82324 441 ft 86 kts 220°
2026-04-29 08:16 52.32418 4.81793 277 ft 67 kts 197°
2026-04-29 08:17 52.32009 4.81215 206 ft 83 kts 226°
2026-04-29 08:17 52.31582 4.80547 84 ft 86 kts 219°
2026-04-29 08:17 52.31149 4.79938 0 ft 76 kts 218°
2026-04-29 08:17 52.30864 4.79539 -12 ft 36 kts 217°